Defiance, OH

9:06 AM EST on January 17, 2017 (GMT -0500)
Defiance Memorial

Weather History for KDFI - July, 2013

Change the Weather History Date:

Friday, July 19, 2013

  Actual Average Record
Temperature  
Mean Temperature 83 °F -  
Max Temperature 93 °F 87 °F 97 °F (1946)
Min Temperature 75 °F 63 °F 50 °F (1947)
Cooling Degree Days 18    
Growing Degree Days 33 (Base 50)    
Moisture  
Dew Point 71 °F    
Average Humidity 65    
Maximum Humidity 85    
Minimum Humidity 48    
Precipitation  
Precipitation 0.00 in - - ()
Sea Level Pressure  
Sea Level Pressure 29.89 in    
Wind  
Wind Speed 8 mph (SW)    
Max Wind Speed 15 mph    
Max Gust Speed 24 mph    
Visibility 9 miles    
Events Thunderstorm    
Averages and records for this station are not official NWS values.
T = Trace of Precipitation, MM = Missing Value Source: NWS Daily Summary

Daily Weather History Graph

Daily Weather History Graph

Search for Another Location

Airport or City:

Trip Planner

Search our weather history database for the weather conditions in past years. The results will help you decide how hot, cold, wet, or windy it might be!

Date:

Astronomy

Jul. 19, 2013 Rise Set
Actual Time 6:21 AM EDT 9:06 PM EDT
Civil Twilight 5:48 AM EDT 9:38 PM EDT
Nautical Twilight 5:07 AM EDT 10:19 PM EDT
Astronomical Twilight 4:21 AM EDT 11:05 PM EDT
Moon 6:08 PM EDT (7/19) 3:01 AM EDT (7/19)
Length of Visible Light 15h 50m
Length of Day
14h 45m
Waxing Gibbous, 86% of the Moon is Illuminated
Jul 19
Waxing Gibbous
Jul 22
Full
Jul 29
Last Quarter
Aug 6
New
Aug 14
First Quarter

Hourly Weather History & Observations

Time (EDT) Temp. Heat Index Dew Point Humidity Pressure Visibility Wind Dir Wind Speed Gust Speed Precip Events Conditions
12:53 AM 78.1 °F - 71.1 °F 79% 30.00 in 10.0 mi SSW 4.6 mph - N/A   Clear
1:53 AM 78.1 °F - 72.0 °F 81% 29.99 in 10.0 mi SW 3.5 mph - N/A   Clear
2:53 AM 78.1 °F - 71.1 °F 79% 29.97 in 10.0 mi SSW 4.6 mph - N/A   Clear
3:53 AM 77.0 °F - 71.1 °F 82% 29.96 in 9.0 mi SSW 4.6 mph - N/A   Clear
4:53 AM 77.0 °F - 71.1 °F 82% 29.95 in 9.0 mi SW 3.5 mph - N/A   Clear
5:53 AM 75.9 °F - 71.1 °F 85% 29.94 in 8.0 mi SSW 4.6 mph - N/A   Clear
6:53 AM 75.9 °F - 71.1 °F 85% 29.95 in 7.0 mi SSW 6.9 mph - N/A   Clear
7:53 AM 78.1 °F - 71.1 °F 79% 29.96 in 7.0 mi SSW 6.9 mph - N/A   Clear
8:53 AM 82.0 °F 86.7 °F 72.0 °F 71% 29.95 in 9.0 mi SW 10.4 mph - N/A   Unknown
9:53 AM 84.9 °F 90.7 °F 72.0 °F 65% 29.96 in 10.0 mi WSW 8.1 mph 16.1 mph N/A   Clear
10:53 AM 88.0 °F 94.7 °F 72.0 °F 59% 29.95 in 10.0 mi SW 12.7 mph 20.7 mph N/A   Clear
11:53 AM 90.0 °F 96.9 °F 72.0 °F 55% 29.94 in 9.0 mi WSW 15.0 mph 23.0 mph N/A   Partly Cloudy
12:53 PM 90.0 °F 96.9 °F 72.0 °F 55% 29.92 in 10.0 mi WSW 8.1 mph 20.7 mph N/A   Scattered Clouds
1:53 PM 91.9 °F 100.7 °F 73.0 °F 54% 29.89 in 10.0 mi SW 13.8 mph 20.7 mph N/A   Scattered Clouds
2:53 PM 91.9 °F 99.5 °F 72.0 °F 52% 29.86 in 10.0 mi SW 13.8 mph 24.2 mph N/A   Partly Cloudy
3:53 PM 91.9 °F 98.4 °F 71.1 °F 50% 29.83 in 10.0 mi WSW 11.5 mph 19.6 mph N/A   Mostly Cloudy
4:53 PM 91.9 °F 97.4 °F 70.0 °F 48% 29.81 in 10.0 mi SW 13.8 mph 23.0 mph N/A   Partly Cloudy
5:53 PM 91.9 °F 98.4 °F 71.1 °F 50% 29.80 in 10.0 mi WSW 11.5 mph 19.6 mph N/A   Partly Cloudy
6:53 PM 90.0 °F 96.4 °F 71.1 °F 54% 29.80 in 10.0 mi SW 9.2 mph 20.7 mph N/A   Partly Cloudy
7:53 PM 89.1 °F 95.0 °F 71.1 °F 55% 29.80 in 10.0 mi SW 12.7 mph - N/A   Clear
8:46 PM 87.8 °F 93.8 °F 71.6 °F 58% 29.82 in 10.0 mi SW 13.8 mph 19.6 mph N/A Thunderstorm Partly Cloudy
8:53 PM 87.1 °F 92.8 °F 71.1 °F 59% 29.80 in 10.0 mi SW 11.5 mph - N/A Thunderstorm Thunderstorm
9:23 PM 86.0 °F 91.8 °F 71.6 °F 62% 29.82 in 10.0 mi SW 10.4 mph - N/A   Clear
9:53 PM 84.9 °F 90.7 °F 72.0 °F 65% 29.80 in 10.0 mi SW 11.5 mph - N/A   Clear
10:53 PM 82.9 °F 88.0 °F 72.0 °F 69% 29.80 in 9.0 mi SSW 10.4 mph - N/A   Clear
11:53 PM 82.9 °F 87.5 °F 71.1 °F 67% 29.81 in 8.0 mi SW 12.7 mph 19.6 mph N/A   Scattered Clouds